Location: Carabito
(9.8355°N, 67.9249°W)
Time: 11:34:36
(UTC+00:00)

Cosmos 1536 Rocket - Pass Details

Date: 23 May 2024
Orbit: 601 x 629 km, 82.5° (Epoch: 20 June)

Event Time Altitude Azimuth Distance (km) Brightness Sun altitude
Exits shadow 09:02:11 - 181° (S) 2,506 6.4 -16.2°
Reaches altitude 10° 09:03:30 10° 180° (S) 1,976 5.9 -15.9°
Maximum altitude 09:07:52 80° 93° (E) 634 3.6 -14.9°
Drops below altitude 10° 09:12:17 10° 7° (N) 1,990 6.6 -13.9°
Sets 09:14:31 0° 6° (N) 2,899 7.4 -13.4°
